EW6430 Weather Reports


time (UTC)temp
C
wind
direction
speed
KPH
gust
KPH
rain 1hr
cm
rain 24hr
cm
rain mn
cm
humidity
%
barometer
mb
20260506135702 23 225 12.9 25.7 0.00 0.00 0.00 46 1005.4
20260506135146 23 242 12.9 25.7 0.00 0.00 0.00 45 1005.4
20260506134630 23 200 14.5 30.6 0.00 0.00 0.00 44 1005.3
20260506134505 23 197 14.5 30.6 0.00 0.00 0.00 44 1004.8
20260506134120 24 180 12.9 30.6 0.00 0.00 0.00 45 1005.3
20260506133606 24 175 11.3 24.1 0.00 0.00 0.00 45 1005.3
20260506133056 24 241 9.7 24.1 0.00 0.00 0.00 46 1005.4
20260506133033 23 281 14.5 24.1 0.00 0.00 0.00 45 1004.8
20260506132546 24 245 8.0 22.5 0.00 0.00 0.00 45 1005.4
20260506132032 24 217 8.0 20.9 0.00 0.00 0.00 45 1005.3
20260506131600 24 248 8.0 20.9 0.00 0.00 0.00 45 1004.9
20260506131520 24 257 6.4 22.5 0.00 0.00 0.00 45 1005.5
20260506131009 24 218 8.0 22.5 0.00 0.00 0.00 47 1005.5
20260506130457 24 228 9.7 22.5 0.00 0.00 0.00 47 1005.5
20260506130023 23 207 12.9 29.0 0.00 0.00 0.00 46 1004.9
20260506125944 23 205 11.3 29.0 0.00 0.00 0.00 46 1005.5
20260506125428 23 214 11.3 29.0 0.00 0.00 0.00 45 1005.6
20260506124918 23 223 12.9 29.0 0.00 0.00 0.00 45 1005.7
20260506124546 23 184 11.3 27.4 0.00 0.00 0.00 46 1005.2
20260506124404 23 216 12.9 29.0 0.00 0.00 0.00 46 1005.7
20260506123851 24 238 11.3 25.7 0.00 0.00 0.00 47 1005.7
20260506123336 23 188 11.3 25.7 0.00 0.00 0.00 46 1005.7
20260506123002 23 160 8.0 25.7 0.00 0.00 0.00 47 1005.3
20260506122822 23 254 12.9 27.4 0.00 0.00 0.00 47 1005.9
20260506122306 23 223 11.3 27.4 0.00 0.00 0.00 47 1005.8
20260506121754 23 181 11.3 25.7 0.00 0.00 0.00 50 1005.7
20260506121538 23 263 6.4 25.7 0.00 0.00 0.00 51 1005.3
20260506121249 23 206 11.3 25.7 0.00 0.00 0.00 51 1005.9
20260506120733 22 266 12.9 25.7 0.00 0.00 0.00 50 1005.8
20260506120218 23 248 14.5 27.4 0.00 0.00 0.00 51 1005.9
20260506120057 22 255 14.5 27.4 0.00 0.00 0.00 50 1005.4
20260506115702 23 202 12.9 27.4 0.00 0.00 0.00 50 1005.8
20260506115148 23 222 11.3 22.5 0.00 0.00 0.00 50 1005.9
20260506114631 23 248 12.9 25.7 0.00 0.00 0.00 49 1005.9
20260506114504 22 263 8.0 25.7 0.00 0.00 0.00 50 1005.4
20260506114116 23 213 14.5 25.7 0.00 0.00 0.00 50 1005.9
20260506113049 23 157 12.9 25.7 0.00 0.00 0.00 51 1005.8
20260506113023 22 137 8.0 25.7 0.00 0.00 0.00 51 1005.3
20260506112545 22 198 14.5 24.1 0.00 0.00 0.00 53 1005.9
20260506111542 22 243 14.5 29.0 0.00 0.00 0.00 53 1005.4
20260506110949 22 199 14.5 29.0 0.00 0.00 0.00 53 1005.9
20260506110437 22 236 12.9 29.0 0.00 0.00 0.00 54 1006.0
20260506110006 22 215 12.9 24.1 0.00 0.00 0.00 53 1005.5
20260506105925 22 160 9.7 27.4 0.00 0.00 0.00 54 1006.0
20260506104856 22 242 12.9 25.7 0.00 0.00 0.00 53 1006.1
20260506104626 22 230 16.1 25.7 0.00 0.00 0.00 54 1005.6
20260506104345 22 225 11.3 27.4 0.00 0.00 0.00 54 1006.2
20260506103831 22 252 12.9 27.4 0.00 0.00 0.00 54 1006.2
20260506103150 21 238 11.3 33.8 0.00 0.00 0.00 55 1005.6
20260506102803 22 187 12.9 35.4 0.00 0.00 0.00 55 1006.3
20260506102251 22 240 12.9 27.4 0.00 0.00 0.00 56 1006.1
20260506101735 21 195 14.5 25.7 0.00 0.00 0.00 56 1006.2
20260506101503 21 173 14.5 25.7 0.00 0.00 0.00 56 1005.6
20260506101221 21 269 12.9 30.6 0.00 0.00 0.00 57 1006.2
20260506100709 21 197 11.3 30.6 0.00 0.00 0.00 57 1006.1
20260506100205 21 200 12.9 27.4 0.00 0.00 0.00 56 1006.2
20260506100128 21 225 14.5 27.4 0.00 0.00 0.00 56 1005.7
20260506095642 21 201 14.5 30.6 0.00 0.00 0.00 57 1006.2
20260506095124 21 247 12.9 30.6 0.00 0.00 0.00 57 1006.2
20260506094611 21 261 12.9 25.7 0.00 0.00 0.00 58 1006.2
20260506094606 21 249 9.7 25.7 0.00 0.00 0.00 58 1005.7
20260506094058 21 247 14.5 25.7 0.00 0.00 0.00 58 1006.2
20260506093033 21 246 11.3 30.6 0.00 0.00 0.00 60 1006.1
20260506093006 20 245 14.5 30.6 0.00 0.00 0.00 60 1005.7
20260506092518 20 202 12.9 22.5 0.00 0.00 0.00 60 1006.2
20260506092006 20 260 14.5 29.0 0.00 0.00 0.00 59 1006.1
20260506091534 20 219 14.5 29.0 0.00 0.00 0.00 59 1005.6
20260506091457 21 253 14.5 30.6 0.00 0.00 0.00 60 1006.1
20260506090430 20 199 14.5 38.6 0.00 0.00 0.00 60 1006.1
20260506085414 20 190 16.1 33.8 0.00 0.00 0.00 60 1006.0
20260506084905 20 231 14.5 29.0 0.00 0.00 0.00 62 1006.0
20260506084549 20 244 16.1 29.0 0.00 0.00 0.00 61 1005.4
20260506084406 20 221 11.3 29.0 0.00 0.00 0.00 62 1006.0
20260506083908 20 221 11.3 30.6 0.00 0.00 0.00 62 1005.9
20260506083402 20 257 9.7 30.6 0.00 0.00 0.00 61 1005.9
20260506083039 20 248 4.8 24.1 0.00 0.00 0.00 63 1005.2
20260506082856 20 245 9.7 24.1 0.00 0.00 0.00 62 1005.8
20260506081840 20 222 9.7 22.5 0.00 0.00 0.00 63 1005.8
20260506081513 20 152 9.7 25.7 0.00 0.00 0.00 64 1005.2
20260506081335 20 186 11.3 25.7 0.00 0.00 0.00 65 1005.8
20260506080821 19 234 12.9 32.2 0.00 0.00 0.00 65 1005.8
20260506080314 19 269 12.9 30.6 0.00 0.00 0.00 65 1005.6
20260506073223 18 250 11.3 29.0 0.00 0.00 0.00 67 1005.7
20260506073108 18 242 9.7 29.0 0.00 0.00 0.00 67 1005.1
20260506072715 18 232 11.3 29.0 0.00 0.00 0.00 67 1005.7
20260506072205 18 254 11.3 24.1 0.00 0.00 0.00 68 1005.7
20260506071651 18 252 9.7 24.1 0.00 0.00 0.00 68 1005.7
20260506071530 18 219 9.7 20.9 0.00 0.00 0.00 68 1005.1
20260506071142 18 250 11.3 24.1 0.00 0.00 0.00 68 1005.6
20260506070627 17 255 12.9 27.4 0.00 0.00 0.00 68 1005.5
20260506061423 16 194 12.9 30.6 0.00 0.00 0.00 70 1005.5
20260506060904 16 213 12.9 30.6 0.00 0.00 0.00 70 1005.4
20260506060351 16 225 14.5 40.2 0.00 0.00 0.00 71 1005.3
20260506051132 15 213 8.0 16.1 0.00 0.00 0.00 74 1005.1
20260506050618 15 188 6.4 17.7 0.00 0.00 0.00 73 1005.1
20260506045037 15 236 3.2 12.9 0.00 0.00 0.00 74 1005.0
20260506044523 15 208 3.2 11.3 0.00 0.00 0.00 74 1005.1
20260506044009 15 170 3.2 9.7 0.00 0.00 0.00 74 1005.0
20260506043021 14 246 3.2 9.7 0.00 0.00 0.00 75 1004.4
20260506042944 14 252 3.2 9.7 0.00 0.00 0.00 75 1005.0
20260506042429 14 239 3.2 11.3 0.00 0.00 0.00 75 1004.9
20260506041915 14 236 3.2 11.3 0.00 0.00 0.00 75 1004.9
20260506041550 13 199 3.2 11.3 0.00 0.00 0.00 76 1004.3
20260506041404 14 190 1.6 11.3 0.00 0.00 0.00 76 1004.8
20260506040847 13 193 1.6 11.3 0.00 0.00 0.00 77 1004.8
20260506040333 13 227 0.0 3.2 0.00 0.00 0.00 78 1004.8
20260506040001 13 227 0.0 4.8 0.00 0.00 0.00 78 1004.3
20260506035819 13 227 1.6 6.4 0.00 0.00 0.00 79 1004.8
20260506035306 13 227 1.6 6.4 0.00 0.00 0.00 80 1004.6
20260506034749 12 240 0.0 3.2 0.00 0.00 0.00 81 1004.8
20260506034518 12 229 0.0 3.2 0.00 0.00 0.00 82 1004.1
20260506034235 12 242 0.0 3.2 0.00 0.00 0.00 82 1004.5
20260506033720 12 242 0.0 3.2 0.00 0.00 0.00 83 1004.5
20260506033208 11 242 0.0 3.2 0.00 0.00 0.00 85 1004.5
20260506033037 11 240 0.0 3.2 0.00 0.00 0.00 86 1004.1
20260506032651 11 240 0.0 3.2 0.00 0.00 0.00 87 1004.5
20260506031605 10 244 0.0 0.0 0.00 0.00 0.00 86 1004.2
20260506031110 10 244 0.0 0.0 0.00 0.00 0.00 85 1004.6
20260506030059 10 244 0.0 0.0 0.00 0.00 0.00 85 1004.6
20260506030021 10 244 0.0 0.0 0.00 0.00 0.00 85 1004.1
20260506025534 10 244 0.0 0.0 0.00 0.00 0.00 84 1004.6
20260506025018 10 244 0.0 0.0 0.00 0.00 0.00 84 1004.8
20260506024533 10 244 0.0 0.0 0.00 0.00 0.00 84 1004.2
20260506024456 10 244 0.0 0.0 0.00 0.00 0.00 84 1004.8
20260506023412 10 244 0.0 0.0 0.00 0.00 0.00 83 1004.9
20260506023037 10 244 0.0 0.0 0.00 0.00 0.00 83 1004.3
20260506022855 10 244 0.0 0.0 0.00 0.00 0.00 83 1004.8
20260506022343 10 244 0.0 0.0 0.00 0.00 0.00 82 1004.8
20260506021832 11 244 0.0 0.0 0.00 0.00 0.00 82 1004.9
20260506021324 11 244 0.0 0.0 0.00 0.00 0.00 81 1004.8
20260506020813 11 244 0.0 0.0 0.00 0.00 0.00 80 1004.8
20260506020301 11 244 0.0 0.0 0.00 0.00 0.00 79 1004.8
20260506020133 11 244 0.0 0.0 0.00 0.00 0.00 79 1004.2
20260506015750 11 244 0.0 0.0 0.00 0.00 0.00 79 1004.8
20260506015238 11 244 0.0 1.6 0.00 0.00 0.00 80 1004.6
20260506014728 11 244 0.0 1.6 0.00 0.00 0.00 80 1004.8
20260506014221 11 244 0.0 0.0 0.00 0.00 0.00 80 1004.8
20260506013037 11 244 0.0 3.2 0.00 0.00 0.00 80 1004.2
20260506012648 11 244 0.0 3.2 0.00 0.00 0.00 79 1004.6
20260506012147 11 241 0.0 0.0 0.00 0.00 0.00 79 1004.5
20260506011529 11 241 0.0 0.0 0.00 0.00 0.00 78 1004.1
20260506011144 11 241 0.0 0.0 0.00 0.00 0.00 78 1004.5
20260506010640 11 241 0.0 1.6 0.00 0.00 0.00 78 1004.5
20260506010017 11 241 0.0 0.0 0.00 0.00 0.00 77 1004.0
20260506005635 12 241 0.0 0.0 0.00 0.00 0.00 76 1004.5
20260506004619 12 241 0.0 0.0 0.00 0.00 0.00 75 1004.4
20260506004559 12 241 0.0 0.0 0.00 0.00 0.00 75 1004.0
20260506003614 12 241 0.0 0.0 0.00 0.00 0.00 73 1004.3
20260506003038 12 241 0.0 0.0 0.00 0.00 0.00 72 1004.0
20260506002551 13 241 0.0 0.0 0.00 0.00 0.00 71 1004.4
20260506002047 13 241 0.0 0.0 0.00 0.00 0.00 71 1004.5
20260506001533 13 241 0.0 0.0 0.00 0.00 0.00 70 1004.6
20260506001510 13 241 0.0 0.0 0.00 0.00 0.00 70 1004.2
20260506001024 13 241 0.0 0.0 0.00 0.00 0.00 69 1004.6
20260506000516 14 241 0.0 0.0 0.00 0.00 0.00 68 1004.6
20260506000044 14 241 0.0 1.6 0.00 0.00 0.00 66 1004.3
20260506000006 14 241 0.0 1.6 0.00 0.00 0.00 66 1004.8
20260505235456 15 241 0.0 1.6 0.00 0.00 0.00 66 1004.8
20260505234946 15 241 0.0 0.0 0.00 0.00 0.00 65 1004.9
20260505234511 15 241 0.0 0.0 0.00 0.00 0.00 65 1004.4
20260505234447 15 241 0.0 4.8 0.00 0.00 0.00 65 1004.9
20260505233920 15 241 0.0 4.8 0.00 0.00 0.00 66 1004.9
20260505233405 14 257 0.0 3.2 0.00 0.00 0.00 67 1004.8
20260505233042 13 257 0.0 3.2 0.00 0.00 0.00 68 1004.4
20260505231850 13 244 0.0 0.0 0.00 0.00 0.00 69 1005.0
20260505231527 13 244 0.0 0.0 0.00 0.00 0.00 68 1004.5
20260505231351 14 244 0.0 0.0 0.00 0.00 0.00 68 1005.0
20260505230827 14 244 0.0 3.2 0.00 0.00 0.00 66 1005.0
20260505230329 15 244 0.0 3.2 0.00 0.00 0.00 64 1005.1
20260505230058 14 207 0.0 0.0 0.00 0.00 0.00 64 1004.6
20260505225819 15 207 0.0 0.0 0.00 0.00 0.00 63 1005.0
20260505225306 15 207 0.0 0.0 0.00 0.00 0.00 61 1005.1
20260505224755 15 207 0.0 0.0 0.00 0.00 0.00 60 1005.1
20260505224526 15 207 0.0 0.0 0.00 0.00 0.00 60 1004.6
20260505224242 16 207 0.0 0.0 0.00 0.00 0.00 59 1005.1
20260505223730 16 207 0.0 1.6 0.00 0.00 0.00 57 1005.1
20260505223056 16 207 0.0 1.6 0.00 0.00 0.00 56 1004.6
20260505222706 17 207 0.0 1.6 0.00 0.00 0.00 55 1005.1
20260505222154 17 207 0.0 1.6 0.00 0.00 0.00 54 1005.1
20260505221642 18 207 0.0 8.0 0.00 0.00 0.00 53 1005.1
20260505221514 17 207 0.0 8.0 0.00 0.00 0.00 53 1004.7
20260505221128 18 208 0.0 8.0 0.00 0.00 0.00 52 1005.1
20260505220629 18 151 1.6 4.8 0.00 0.00 0.00 51 1005.1
20260505220146 18 105 1.6 6.4 0.00 0.00 0.00 50 1004.6
20260505220114 18 105 1.6 6.4 0.00 0.00 0.00 50 1005.1
20260505215617 18 105 1.6 6.4 0.00 0.00 0.00 50 1005.2
20260505215054 19 137 1.6 4.8 0.00 0.00 0.00 49 1005.2
20260505214553 19 187 1.6 4.8 0.00 0.00 0.00 48 1005.2
20260505214516 19 187 0.0 4.8 0.00 0.00 0.00 48 1004.7
20260505214030 20 184 1.6 4.8 0.00 0.00 0.00 47 1005.2
20260505213518 20 182 3.2 12.9 0.00 0.00 0.00 47 1005.2
20260505213043 20 184 4.8 12.9 0.00 0.00 0.00 47 1004.6
20260505213004 20 157 3.2 12.9 0.00 0.00 0.00 47 1005.1
20260505212454 20 179 3.2 11.3 0.00 0.00 0.00 46 1005.1
20260505211940 20 151 3.2 11.3 0.00 0.00 0.00 46 1005.1
20260505211611 20 159 1.6 12.9 0.00 0.00 0.00 45 1004.7
20260505211424 20 215 4.8 12.9 0.00 0.00 0.00 45 1005.1
20260505210911 20 213 8.0 24.1 0.00 0.00 0.00 45 1005.3
20260505210355 20 245 11.3 22.5 0.00 0.00 0.00 45 1005.3
20260505210028 20 259 4.8 25.7 0.00 0.00 0.00 45 1004.9
20260505205846 20 154 11.3 25.7 0.00 0.00 0.00 45 1005.3
20260505205333 20 218 8.0 17.7 0.00 0.00 0.00 46 1005.4
20260505204820 21 209 8.0 17.7 0.00 0.00 0.00 46 1005.5
20260505204553 20 188 8.0 17.7 0.00 0.00 0.00 47 1005.0
20260505203013 20 154 9.7 16.1 0.00 0.00 0.00 48 1004.9
20260505201704 20 170 8.0 16.1 0.00 0.00 0.00 49 1005.3
20260505201536 20 147 4.8 17.7 0.00 0.00 0.00 49 1004.9
20260505201152 20 143 6.4 22.5 0.00 0.00 0.00 50 1005.3
20260505200640 20 169 3.2 14.5 0.00 0.00 0.00 52 1005.3
20260505200127 18 189 0.0 14.5 0.00 0.00 0.00 53 1005.3
20260505200104 18 184 3.2 14.5 0.00 0.00 0.00 53 1004.9
20260505195623 18 152 0.0 3.2 0.00 0.00 0.00 53 1005.3
20260505195111 19 152 0.0 3.2 0.00 0.00 0.00 52 1005.3
20260505194556 20 144 0.0 3.2 0.00 0.00 0.00 51 1005.2
20260505194531 20 144 0.0 3.2 0.00 0.00 0.00 51 1004.8
20260505194045 20 144 0.0 3.2 0.00 0.00 0.00 50 1005.3
20260505193533 21 144 0.0 3.2 0.00 0.00 0.00 48 1005.2
20260505193049 21 144 0.0 3.2 0.00 0.00 0.00 47 1004.8
20260505193014 21 144 0.0 3.2 0.00 0.00 0.00 47 1005.2
20260505192502 21 143 1.6 6.4 0.00 0.00 0.00 46 1005.2
20260505191951 21 143 1.6 4.8 0.00 0.00 0.00 46 1005.2
20260505191515 21 150 0.0 4.8 0.00 0.00 0.00 46 1004.8
20260505191438 21 150 1.6 8.0 0.00 0.00 0.00 45 1005.2
20260505190924 21 149 3.2 8.0 0.00 0.00 0.00 45 1005.2
20260505190410 22 150 3.2 12.9 0.00 0.00 0.00 44 1005.1
20260505190040 21 189 1.6 12.9 0.00 0.00 0.00 44 1004.7
20260505185858 22 123 3.2 12.9 0.00 0.00 0.00 44 1005.2
20260505184848 22 153 3.2 9.7 0.00 0.00 0.00 44 1005.3
20260505184513 22 213 1.6 14.5 0.00 0.00 0.00 43 1004.8
20260505184334 22 184 4.8 16.1 0.00 0.00 0.00 43 1005.2
20260505183820 22 174 4.8 16.1 0.00 0.00 0.00 43 1005.2
20260505183306 22 170 3.2 16.1 0.00 0.00 0.00 43 1005.1
20260505183039 22 186 1.6 9.7 0.00 0.00 0.00 43 1004.7
20260505182751 22 173 3.2 12.9 0.00 0.00 0.00 42 1005.1
20260505182237 23 142 4.8 12.9 0.00 0.00 0.00 42 1005.2
20260505181722 23 158 4.8 14.5 0.00 0.00 0.00 42 1005.1
20260505181659 22 158 1.6 12.9 0.00 0.00 0.00 42 1004.7
20260505181208 23 190 6.4 12.9 0.00 0.00 0.00 41 1005.0
20260505180651 23 142 6.4 19.3 0.00 0.00 0.00 41 1005.0
20260505180140 23 175 4.8 17.7 0.00 0.00 0.00 40 1004.9
20260505180011 23 153 4.8 14.5 0.00 0.00 0.00 40 1004.6
20260505175112 23 209 4.8 17.7 0.00 0.00 0.00 40 1005.0
20260505174556 23 207 4.8 17.7 0.00 0.00 0.00 39 1005.0
20260505174539 23 207 6.4 17.7 0.00 0.00 0.00 39 1004.6
20260505174035 23 190 4.8 12.9 0.00 0.00 0.00 39 1005.0
20260505173523 23 188 4.8 9.7 0.00 0.00 0.00 38 1005.0
20260505173046 23 196 3.2 16.1 0.00 0.00 0.00 38 1004.6
20260505173010 23 222 6.4 16.1 0.00 0.00 0.00 38 1005.1
20260505172457 24 240 8.0 16.1 0.00 0.00 0.00 37 1005.0
20260505171941 24 193 9.7 29.0 0.00 0.00 0.00 36 1005.0
20260505171510 24 251 9.7 25.7 0.00 0.00 0.00 35 1004.6
20260505171427 24 245 9.7 29.0 0.00 0.00 0.00 35 1005.0
20260505170912 25 202 9.7 25.7 0.00 0.00 0.00 33 1005.0
20260505170357 25 227 11.3 22.5 0.00 0.00 0.00 31 1004.9
20260505170024 25 212 9.7 30.6 0.00 0.00 0.00 30 1004.6
20260505165845 25 181 11.3 30.6 0.00 0.00 0.00 30 1004.9
20260505164814 25 202 9.7 25.7 0.00 0.00 0.00 27 1004.9
20260505164603 25 166 9.7 25.7 0.00 0.00 0.00 26 1004.6
20260505164301 25 217 11.3 25.7 0.00 0.00 0.00 26 1004.9
20260505163746 25 234 12.9 29.0 0.00 0.00 0.00 26 1005.0
20260505163234 25 201 11.3 29.0 0.00 0.00 0.00 25 1005.0
20260505163107 25 216 16.1 29.0 0.00 0.00 0.00 24 1004.6
20260505162714 25 202 9.7 25.7 0.00 0.00 0.00 24 1004.9
20260505162202 26 251 9.7 25.7 0.00 0.00 0.00 24 1004.9
20260505161640 26 188 8.0 25.7 0.00 0.00 0.00 25 1005.0
20260505161616 25 207 9.7 25.7 0.00 0.00 0.00 25 1004.6
20260505161120 26 214 8.0 24.1 0.00 0.00 0.00 27 1004.9
20260505160612 26 147 9.7 24.1 0.00 0.00 0.00 26 1004.9
20260505153036 26 202 14.5 30.6 0.00 0.00 0.00 24 1004.9
20260505152450 26 209 14.5 37.0 0.00 0.00 0.00 23 1005.3
20260505151945 26 181 16.1 37.0 0.00 0.00 0.00 22 1005.3
20260505151514 26 177 11.3 30.6 0.00 0.00 0.00 23 1004.9
20260505151433 26 180 16.1 30.6 0.00 0.00 0.00 23 1005.2
20260505150941 26 255 12.9 25.7 0.00 0.00 0.00 24 1005.3
20260505150417 26 191 12.9 25.7 0.00 0.00 0.00 25 1005.5
20260505140227 27 228 16.1 37.0 0.00 0.00 0.00 20 1005.6